Location: Allaines
(49.9632°N, 2.9458°E)
Time: 13:54:26
(UTC+00:00)

SPOT 3 Rocket - Pass Details

Date: 09 April 2020
Orbit: 778 x 795 km, 98.8° (Epoch: 25 May)

Event Time Altitude Azimuth Distance (km) Brightness Sun altitude
Exits shadow 19:22:44 - 152° (SSE) 3,023 6.1 -8.4°
Reaches altitude 10° 19:24:25 10° 150° (SSE) 2,356 5.6 -8.6°
Maximum altitude 19:29:33 64° 70° (ENE) 879 3.6 -9.4°
Drops below altitude 10° 19:34:42 10° 350° (N) 2,363 6.5 -10.1°
Sets 19:37:02 0° 348° (NNW) 3,294 7.4 -10.5°
